AXY27 KTUL-KDTW

Flight info

Callsign AXY27
Flight time N/A
Altitude 39000
Route EOS SWAYD HANBL3
Aircraft E35L/M-SABDFGRW/S

Departure

Time 2026-04-28 00:06
Airport Tulsa International Airport (KTUL)

Arrival

Time N/A
Airport Detroit Metropolitan Wayne County Airport (KDTW)
Time Latitude Longitude Altitude Speed Heading
2026-04-27 23:55 36.19283 -95.89240 661 ft 0 kts 360°
2026-04-27 23:55 36.19284 -95.89240 661 ft 0 kts 360°
2026-04-28 00:03 36.19303 -95.89243 661 ft 7 kts 346°
2026-04-28 00:03 36.19395 -95.89251 660 ft 17 kts
2026-04-28 00:04 36.19444 -95.89122 658 ft 21 kts 89°
2026-04-28 00:04 36.19444 -95.88672 654 ft 30 kts 89°
2026-04-28 00:04 36.19446 -95.88399 652 ft 26 kts 88°
2026-04-28 00:05 36.19446 -95.88357 652 ft 2 kts 91°
2026-04-28 00:05 36.19452 -95.88269 652 ft 11 kts 50°
2026-04-28 00:05 36.19579 -95.88254 651 ft 45 kts
2026-04-28 00:05 36.19939 -95.88236 648 ft 110 kts
2026-04-28 00:06 36.21351 -95.88135 968 ft 188 kts
2026-04-28 00:06 36.22754 -95.87828 1691 ft 230 kts 20°
2026-04-28 00:06 36.24007 -95.86468 2805 ft 261 kts 56°
2026-04-28 00:06 36.24429 -95.84296 4204 ft 270 kts 92°
2026-04-28 00:07 36.24082 -95.82023 5397 ft 279 kts 111°
2026-04-28 00:07 36.23488 -95.79772 6690 ft 285 kts 100°
2026-04-28 00:07 36.23576 -95.77294 7853 ft 297 kts 84°
2026-04-28 00:07 36.24101 -95.74805 8863 ft 311 kts 65°
2026-04-28 00:08 36.25132 -95.72384 9801 ft 327 kts 59°
2026-04-28 00:08 36.26263 -95.69923 10803 ft 338 kts 58°
2026-04-28 00:08 36.27465 -95.67347 11739 ft 351 kts 57°
2026-04-28 00:08 36.28709 -95.64681 12669 ft 363 kts 57°
2026-04-28 00:09 36.29983 -95.61952 13581 ft 374 kts 56°
2026-04-28 00:09 36.31294 -95.59142 14362 ft 388 kts 56°
2026-04-28 00:09 36.32666 -95.56197 15326 ft 395 kts 56°
2026-04-28 00:09 36.34029 -95.53271 16314 ft 400 kts 57°
2026-04-28 00:10 36.35426 -95.50268 17215 ft 407 kts 57°
2026-04-28 00:10 36.36843 -95.47217 18080 ft 414 kts 57°
2026-04-28 00:10 36.38293 -95.44093 19015 ft 420 kts 56°
2026-04-28 00:10 36.39769 -95.40911 19907 ft 426 kts 56°
2026-04-28 00:11 36.41242 -95.37734 20732 ft 433 kts 56°
2026-04-28 00:11 36.42751 -95.34476 21563 ft 438 kts 57°
2026-04-28 00:11 36.44284 -95.31166 22334 ft 445 kts 57°
2026-04-28 00:11 36.45823 -95.27836 23121 ft 450 kts 57°
2026-04-28 00:12 36.47385 -95.24454 23875 ft 455 kts 57°
2026-04-28 00:12 36.48971 -95.21013 24621 ft 461 kts 57°
2026-04-28 00:12 36.50567 -95.17550 25347 ft 465 kts 57°
2026-04-28 00:12 36.52162 -95.14082 26260 ft 464 kts 57°
2026-04-28 00:13 36.53769 -95.10586 27114 ft 464 kts 56°
2026-04-28 00:13 36.55352 -95.07139 27998 ft 463 kts 57°
2026-04-28 00:13 36.56950 -95.03656 28839 ft 463 kts 56°
2026-04-28 00:13 36.58527 -95.00214 29663 ft 462 kts 56°
2026-04-28 00:14 36.60110 -94.96756 30408 ft 461 kts 56°
2026-04-28 00:14 36.61703 -94.93272 31115 ft 462 kts 56°
2026-04-28 00:14 36.63278 -94.89823 31810 ft 461 kts 56°
2026-04-28 00:14 36.64865 -94.86347 32564 ft 458 kts 56°
2026-04-28 00:15 36.66434 -94.82904 33211 ft 458 kts 55°
2026-04-28 00:15 36.67999 -94.79468 33849 ft 457 kts 55°
2026-04-28 00:15 36.69561 -94.76035 34355 ft 458 kts 55°
2026-04-28 00:15 36.71133 -94.72576 34820 ft 459 kts 54°
2026-04-28 00:16 36.72689 -94.69147 35306 ft 458 kts 54°
2026-04-28 00:16 36.74255 -94.65697 35770 ft 460 kts 54°
2026-04-28 00:16 36.75838 -94.62200 36388 ft 458 kts 54°
2026-04-28 00:16 36.77391 -94.58770 36866 ft 460 kts 54°
2026-04-28 00:17 36.78959 -94.55302 37333 ft 460 kts 54°
2026-04-28 00:17 36.80530 -94.51823 37769 ft 460 kts 54°
2026-04-28 00:17 36.82091 -94.48361 38203 ft 460 kts 54°
2026-04-28 00:17 36.83683 -94.44830 38630 ft 460 kts 53°
2026-04-28 00:18 36.85234 -94.41352 38881 ft 465 kts 52°
2026-04-28 00:18 36.88744 -94.34390 38894 ft 482 kts 52°
2026-04-28 00:19 36.92286 -94.27150 38871 ft 494 kts 52°
2026-04-28 00:19 36.95871 -94.19691 38872 ft 504 kts 53°
2026-04-28 00:20 36.99466 -94.12077 38877 ft 514 kts 53°
2026-04-28 00:20 37.03083 -94.04282 38875 ft 523 kts 54°
2026-04-28 00:21 37.06706 -93.96329 38869 ft 531 kts 54°
2026-04-28 00:21 37.10346 -93.88189 38873 ft 539 kts 56°
2026-04-28 00:22 37.13989 -93.79887 38874 ft 545 kts 56°
2026-04-28 00:22 37.17595 -93.71500 38868 ft 546 kts 57°
2026-04-28 00:23 37.21136 -93.63079 38856 ft 543 kts 57°
2026-04-28 00:23 37.25191 -93.55299 38865 ft 526 kts 42°
2026-04-28 00:24 37.30234 -93.48811 38852 ft 522 kts 42°
2026-04-28 00:24 37.34187 -93.41075 38855 ft 532 kts 60°
2026-04-28 00:25 37.36548 -93.32214 38832 ft 533 kts 69°
2026-04-28 00:25 37.38851 -93.23415 38837 ft 525 kts 62°
2026-04-28 00:26 37.42588 -93.15752 38833 ft 512 kts 48°
2026-04-28 00:26 37.46424 -93.08146 38833 ft 513 kts 54°
2026-04-28 00:27 37.50098 -93.00434 38841 ft 511 kts 54°
2026-04-28 00:27 37.53711 -92.92814 38841 ft 509 kts 54°
2026-04-28 00:28 37.57340 -92.85136 38828 ft 508 kts 54°
2026-04-28 00:28 37.60956 -92.77470 38828 ft 507 kts 54°
2026-04-28 00:29 37.64550 -92.69833 38840 ft 506 kts 54°
2026-04-28 00:29 37.68118 -92.62234 38829 ft 506 kts 54°
2026-04-28 00:30 37.71698 -92.54591 38832 ft 505 kts 55°
2026-04-28 00:30 37.75274 -92.46938 38833 ft 504 kts 55°
2026-04-28 00:31 37.78828 -92.39314 38823 ft 504 kts 54°
2026-04-28 00:31 37.82376 -92.31688 38808 ft 504 kts 56°
2026-04-28 00:32 37.85933 -92.24020 38797 ft 502 kts 56°